Location: Broadmoor
(37.6867°N, 122.4828°W)
Time: 16:41:37
(UTC+00:00)

Cosmos 1300 - Pass Details

Date: 03 August 2024
Orbit: 456 x 457 km, 82.5° (Epoch: 06 September)

Event Time Altitude Azimuth Distance (km) Brightness Sun altitude
Exits shadow 12:26:00 10° 209° (SSW) 1,625 4.7 -9.6°
Reaches altitude 10° 12:26:00 10° 209° (SSW) 1,625 4.7 -9.6°
Maximum altitude 12:29:22 40° 280° (W) 711 3.0 -9.1°
Drops below altitude 10° 12:32:45 10° 351° (N) 1,638 5.5 -8.5°
Sets 12:34:56 0° 359° (N) 2,519 6.6 -8.1°
